Stündliche Wetter Kramatorsk

Heute, 29 September, Dienstag

Zeit Temperatur Niederschläge Wind Luftdruck Luftfeuchtigkeit
00:00 +17°C° 0 mm 5 m/S 759 mmHg 37%
01:00 +16°C° 0 mm 5 m/S 759 mmHg 40%
02:00 +16°C° 0 mm 5 m/S 759 mmHg 43%
03:00 +15°C° 0 mm 4 m/S 759 mmHg 46%
04:00 +14°C° 0 mm 5 m/S 758 mmHg 49%
05:00 +14°C° 0 mm 6 m/S 758 mmHg 51%
06:00 +13°C° 0 mm 6 m/S 758 mmHg 54%
07:00 +14°C° 0 mm 6 m/S 758 mmHg 54%
08:00 +15°C° 0 mm 7 m/S 758 mmHg 54%
09:00 +15°C° 0 mm 7 m/S 758 mmHg 54%
10:00 +17°C° 0 mm 7 m/S 757 mmHg 50%
11:00 +20°C° 0 mm 7 m/S 757 mmHg 46%
12:00 +21°C° 0 mm 8 m/S 757 mmHg 42%
13:00 +22°C° 0.1 mm 7 m/S 756 mmHg 39%
14:00 +23°C° 0.1 mm 7 m/S 756 mmHg 36%
15:00 +23°C° 0.1 mm 7 m/S 756 mmHg 33%
16:00 +23°C° 0.1 mm 6 m/S 755 mmHg 33%
17:00 +22°C° 0.1 mm 6 m/S 755 mmHg 33%
18:00 +22°C° 0.1 mm 5 m/S 754 mmHg 32%
19:00 +21°C° 0 mm 5 m/S 754 mmHg 32%
20:00 +21°C° 0 mm 6 m/S 754 mmHg 31%
21:00 +21°C° 0 mm 7 m/S 754 mmHg 30%
22:00 +21°C° 0 mm 7 m/S 753 mmHg 31%
23:00 +20°C° 0 mm 8 m/S 753 mmHg 32%

Morgen, 30 September, Mittwoch

Zeit Temperatur Niederschläge Wind Luftdruck Luftfeuchtigkeit
00:00 +20°C° 0 mm 8 m/S 752 mmHg 34%
01:00 +18°C° 0 mm 8 m/S 752 mmHg 37%
02:00 +17°C° 0 mm 8 m/S 752 mmHg 40%
03:00 +16°C° 0 mm 8 m/S 752 mmHg 43%
04:00 +15°C° 0 mm 8 m/S 752 mmHg 44%
05:00 +15°C° 0 mm 9 m/S 751 mmHg 45%
06:00 +13°C° 0 mm 9 m/S 751 mmHg 46%
07:00 +13°C° 0 mm 9 m/S 751 mmHg 46%
08:00 +14°C° 0 mm 10 m/S 751 mmHg 45%
09:00 +14°C° 0 mm 10 m/S 751 mmHg 45%
10:00 +17°C° 0 mm 10 m/S 751 mmHg 41%
11:00 +18°C° 0 mm 10 m/S 751 mmHg 37%
12:00 +21°C° 0 mm 10 m/S 751 mmHg 33%
13:00 +21°C° 0.1 mm 10 m/S 750 mmHg 32%
14:00 +22°C° 0.1 mm 9 m/S 750 mmHg 31%
15:00 +22°C° 0.1 mm 9 m/S 750 mmHg 31%
16:00 +22°C° 0 mm 8 m/S 750 mmHg 30%
17:00 +22°C° 0 mm 7 m/S 750 mmHg 30%
18:00 +22°C° 0 mm 6 m/S 750 mmHg 29%
19:00 +21°C° 0.2 mm 7 m/S 750 mmHg 34%
20:00 +20°C° 0.2 mm 8 m/S 750 mmHg 39%
21:00 +19°C° 0.2 mm 9 m/S 751 mmHg 45%
22:00 +17°C° 0.4 mm 9 m/S 751 mmHg 51%
23:00 +16°C° 0.4 mm 9 m/S 751 mmHg 57%

übermorgen, 1 Oktober, Donnerstag

Zeit Temperatur Niederschläge Wind Luftdruck Luftfeuchtigkeit
00:00 +15°C° 0.4 mm 9 m/S 751 mmHg 63%
01:00 +15°C° 0.1 mm 8 m/S 752 mmHg 59%
02:00 +15°C° 0.1 mm 8 m/S 752 mmHg 54%
03:00 +15°C° 0.1 mm 7 m/S 752 mmHg 49%
04:00 +14°C° 0 mm 7 m/S 752 mmHg 51%
05:00 +14°C° 0 mm 6 m/S 753 mmHg 53%
06:00 +14°C° 0 mm 6 m/S 753 mmHg 55%
07:00 +14°C° 0 mm 7 m/S 753 mmHg 54%
08:00 +15°C° 0 mm 7 m/S 753 mmHg 53%
09:00 +15°C° 0 mm 7 m/S 753 mmHg 53%
10:00 +16°C° 0 mm 8 m/S 753 mmHg 50%
11:00 +17°C° 0 mm 8 m/S 754 mmHg 48%
12:00 +18°C° 0 mm 8 m/S 754 mmHg 46%
13:00 +20°C° 0 mm 8 m/S 753 mmHg 43%
14:00 +20°C° 0 mm 8 m/S 753 mmHg 39%
15:00 +21°C° 0 mm 7 m/S 753 mmHg 36%
16:00 +20°C° 0.1 mm 6 m/S 753 mmHg 39%
17:00 +20°C° 0.1 mm 5 m/S 753 mmHg 41%
18:00 +19°C° 0.1 mm 4 m/S 753 mmHg 44%
19:00 +19°C° 0 mm 4 m/S 753 mmHg 42%
20:00 +19°C° 0 mm 5 m/S 753 mmHg 40%
21:00 +19°C° 0 mm 5 m/S 753 mmHg 38%
22:00 +17°C° 0.1 mm 6 m/S 753 mmHg 43%
23:00 +16°C° 0.1 mm 6 m/S 753 mmHg 48%

2 Oktober, Freitag

Zeit Temperatur Niederschläge Wind Luftdruck Luftfeuchtigkeit
00:00 +16°C° 0.1 mm 7 m/S 753 mmHg 54%
01:00 +16°C° 0.2 mm 6 m/S 753 mmHg 51%
02:00 +16°C° 0.2 mm 6 m/S 754 mmHg 49%
03:00 +16°C° 0.2 mm 5 m/S 754 mmHg 47%
04:00 +15°C° 0 mm 5 m/S 754 mmHg 50%
05:00 +14°C° 0 mm 5 m/S 754 mmHg 53%
06:00 +14°C° 0 mm 5 m/S 754 mmHg 56%
07:00 +14°C° 0 mm 6 m/S 754 mmHg 54%
08:00 +15°C° 0 mm 6 m/S 754 mmHg 53%
09:00 +15°C° 0 mm 7 m/S 754 mmHg 51%
10:00 +17°C° 0 mm 7 m/S 754 mmHg 48%
11:00 +18°C° 0 mm 7 m/S 754 mmHg 45%
12:00 +20°C° 0 mm 6 m/S 754 mmHg 43%
13:00 +21°C° 0 mm 6 m/S 754 mmHg 42%
14:00 +22°C° 0 mm 6 m/S 754 mmHg 41%
15:00 +22°C° 0 mm 6 m/S 754 mmHg 40%
16:00 +21°C° 0.1 mm 6 m/S 754 mmHg 46%
17:00 +20°C° 0.1 mm 5 m/S 754 mmHg 52%
18:00 +19°C° 0.1 mm 5 m/S 754 mmHg 58%
19:00 +17°C° 0.3 mm 5 m/S 755 mmHg 64%
20:00 +17°C° 0.3 mm 5 m/S 755 mmHg 69%
21:00 +16°C° 0.3 mm 5 m/S 755 mmHg 75%
22:00 +16°C° 0.4 mm 5 m/S 755 mmHg 73%
23:00 +17°C° 0.4 mm 4 m/S 755 mmHg 71%

3 Oktober, Samstag

Zeit Temperatur Niederschläge Wind Luftdruck Luftfeuchtigkeit
00:00 +15°C° 0.4 mm 4 m/S 756 mmHg 69%
01:00 +16°C° 0 mm 3 m/S 756 mmHg 66%
02:00 +16°C° 0 mm 3 m/S 756 mmHg 62%
03:00 +16°C° 0 mm 3 m/S 756 mmHg 58%
04:00 +16°C° 0 mm 3 m/S 756 mmHg 61%
05:00 +14°C° 0 mm 3 m/S 756 mmHg 64%
06:00 +13°C° 0 mm 3 m/S 756 mmHg 67%
07:00 +14°C° 0 mm 3 m/S 756 mmHg 65%
08:00 +15°C° 0 mm 4 m/S 757 mmHg 64%
09:00 +15°C° 0 mm 4 m/S 757 mmHg 62%
10:00 +18°C° 0 mm 4 m/S 757 mmHg 58%
11:00 +19°C° 0 mm 3 m/S 757 mmHg 55%
12:00 +20°C° 0 mm 3 m/S 757 mmHg 51%
13:00 +20°C° 0 mm 3 m/S 757 mmHg 49%
14:00 +21°C° 0 mm 3 m/S 757 mmHg 47%
15:00 +21°C° 0 mm 3 m/S 757 mmHg 45%
16:00 +20°C° 0 mm 3 m/S 757 mmHg 46%
17:00 +19°C° 0 mm 4 m/S 757 mmHg 46%
18:00 +18°C° 0 mm 4 m/S 757 mmHg 47%
19:00 +17°C° 0 mm 4 m/S 757 mmHg 48%
20:00 +16°C° 0 mm 3 m/S 757 mmHg 49%
21:00 +14°C° 0 mm 3 m/S 758 mmHg 51%
22:00 +14°C° 0 mm 3 m/S 757 mmHg 51%
23:00 +15°C° 0 mm 2 m/S 757 mmHg 51%

4 Oktober, Sonntag

Zeit Temperatur Niederschläge Wind Luftdruck Luftfeuchtigkeit
00:00 +14°C° 0 mm 2 m/S 757 mmHg 52%
01:00 +14°C° 0 mm 2 m/S 757 mmHg 51%
02:00 +14°C° 0 mm 2 m/S 757 mmHg 49%
03:00 +14°C° 0 mm 2 m/S 757 mmHg 48%
04:00 +14°C° 0 mm 2 m/S 757 mmHg 48%
05:00 +14°C° 0 mm 2 m/S 758 mmHg 48%
06:00 +14°C° 0 mm 2 m/S 758 mmHg 47%
07:00 +15°C° 0 mm 2 m/S 758 mmHg 44%
08:00 +16°C° 0 mm 2 m/S 758 mmHg 41%
09:00 +17°C° 0 mm 2 m/S 758 mmHg 38%
10:00 +19°C° 0 mm 2 m/S 758 mmHg 36%
11:00 +20°C° 0 mm 2 m/S 758 mmHg 34%
12:00 +23°C° 0 mm 2 m/S 758 mmHg 33%
13:00 +24°C° 0 mm 2 m/S 757 mmHg 32%
14:00 +24°C° 0 mm 2 m/S 757 mmHg 32%
15:00 +25°C° 0 mm 2 m/S 757 mmHg 32%
16:00 +24°C° 0 mm 2 m/S 757 mmHg 35%
17:00 +21°C° 0 mm 2 m/S 757 mmHg 38%
18:00 +20°C° 0 mm 2 m/S 757 mmHg 42%
19:00 +20°C° 0 mm 3 m/S 758 mmHg 44%
20:00 +19°C° 0 mm 3 m/S 758 mmHg 46%
21:00 +18°C° 0 mm 4 m/S 758 mmHg 49%
22:00 +18°C° 0 mm 4 m/S 759 mmHg 49%
23:00 +16°C° 0 mm 5 m/S 759 mmHg 49%
Mehr zeigen